CW9887 Weather Reports


Display with metric or nautical units.
time (UTC)temp
F
wind
direction
speed
MPH
gust
MPH
rain 1hr
in
rain 24hr
in
rain mn
in
humidity
%
barometer
mb
20190326201740 37 34 4.0 0.0 0.00 0.00 0.00 26 1022.3
20190326200744 37 269 4.0 0.0 0.00 0.00 0.00 27 1022.4
20190326195748 37 240 4.0 0.0 0.00 0.00 0.00 29 1022.4
20190326194753 37 285 3.0 0.0 0.00 0.00 0.00 28 1022.4
20190326193754 37 184 3.0 0.0 0.00 0.00 0.00 27 1022.4
20190326192755 37 249 3.0 0.0 0.00 0.00 0.00 28 1022.3
20190326191739 36 65 4.0 0.0 0.00 0.00 0.00 26 1022.3
20190326191512 36 63 3.0 0.0 0.00 0.00 0.00 28 1024.2
20190326190802 37 331 3.0 0.0 0.00 0.00 0.00 25 1022.5
20190326185738 35 30 5.0 0.0 0.00 0.00 0.00 28 1022.6
20190326184745 36 79 3.0 0.0 0.00 0.00 0.00 27 1022.5
20190326183748 37 259 3.0 0.0 0.00 0.00 0.00 28 1022.6
20190326182749 36 290 3.0 0.0 0.00 0.00 0.00 28 1022.8
20190326181755 35 5 5.0 0.0 0.00 0.00 0.00 32 1023.0
20190326181514 34 316 5.0 0.0 0.00 0.00 0.00 32 1024.8
20190326180743 35 25 4.0 0.0 0.00 0.00 0.00 32 1023.0
20190326175742 34 33 5.0 0.0 0.00 0.00 0.00 29 1023.1
20190326174746 35 30 4.0 0.0 0.00 0.00 0.00 33 1023.2
20190326173747 34 242 4.0 0.0 0.00 0.00 0.00 31 1023.1
20190326172747 33 34 6.0 0.0 0.00 0.00 0.00 30 1023.1
20190326171752 33 78 5.0 0.0 0.00 0.00 0.00 30 1023.2
20190326170752 33 68 4.0 0.0 0.00 0.00 0.00 29 1023.3
20190326165748 33 224 4.0 0.0 0.00 0.00 0.00 32 1023.5
20190326164756 32 137 6.0 0.0 0.00 0.00 0.00 31 1023.3
20190326164507 31 23 6.0 0.0 0.00 0.00 0.00 30 1025.3
20190326163743 32 55 4.0 0.0 0.00 0.00 0.00 34 1023.5
20190326162741 32 60 5.0 0.0 0.00 0.00 0.00 32 1023.5
20190326161748 32 192 5.0 0.0 0.00 0.00 0.00 29 1023.6
20190326160757 32 213 4.0 0.0 0.00 0.00 0.00 32 1023.7
20190326155755 31 298 5.0 0.0 0.00 0.00 0.00 32 1023.6
20190326154759 31 252 3.0 0.0 0.00 0.00 0.00 29 1023.6
20190326154507 31 134 4.0 0.0 0.00 0.00 0.00 31 1025.5
20190326153801 31 69 4.0 0.0 0.00 0.00 0.00 32 1023.7
20190326152741 31 140 4.0 0.0 0.00 0.00 0.00 33 1023.6
20190326151747 31 58 4.0 0.0 0.00 0.00 0.00 34 1023.5
20190326150747 31 24 4.0 0.0 0.00 0.00 0.00 35 1023.6
20190326145745 30 225 4.0 0.0 0.00 0.00 0.00 33 1023.4
20190326144753 30 198 5.0 0.0 0.00 0.00 0.00 32 1023.4
20190326144529 29 219 5.0 0.0 0.00 0.00 0.00 33 1025.2
20190326143757 30 279 4.0 0.0 0.00 0.00 0.00 34 1023.4
20190326142739 29 284 4.0 0.0 0.00 0.00 0.00 35 1023.4
20190326141751 29 303 3.0 0.0 0.00 0.00 0.00 33 1023.2
20190326140754 29 196 3.0 0.0 0.00 0.00 0.00 34 1023.3
20190326135752 29 138 4.0 0.0 0.00 0.00 0.00 38 1023.2
20190326134755 28 261 4.0 0.0 0.00 0.00 0.00 36 1022.8
20190326133756 28 326 4.0 0.0 0.00 0.00 0.00 35 1022.7
20190326132755 29 351 3.0 0.0 0.00 0.00 0.00 38 1022.7
20190326131757 28 218 3.0 0.0 0.00 0.00 0.00 39 1022.6
20190326130741 28 280 2.0 0.0 0.00 0.00 0.00 41 1022.5
20190326125744 28 252 1.0 0.0 0.00 0.00 0.00 41 1022.7
20190326124750 27 267 1.0 0.0 0.00 0.00 0.00 43 1022.6
20190326123754 26 288 3.0 0.0 0.00 0.00 0.00 44 1022.5
20190326122740 26 243 2.0 0.0 0.00 0.00 0.00 43 1022.4
20190326121744 26 236 1.0 0.0 0.00 0.00 0.00 46 1022.4
20190326120745 26 112 1.0 0.0 0.00 0.00 0.00 48 1022.3
20190326115746 26 111 3.0 0.0 0.00 0.00 0.00 45 1022.2
20190326114750 26 42 1.0 0.0 0.00 0.00 0.00 44 1022.1
20190326113751 24 166 0.0 0.0 0.00 0.00 0.00 48 1021.9
20190326112747 23 167 1.0 0.0 0.00 0.00 0.00 49 1021.7
20190326111752 23 166 1.0 0.0 0.00 0.00 0.00 53 1021.3
20190326110753 22 236 1.0 0.0 0.00 0.00 0.00 48 1020.9
20190326105755 22 236 0.0 0.0 0.00 0.00 0.00 52 1020.7
20190326104800 21 236 1.0 0.0 0.00 0.00 0.00 51 1020.6
20190326103743 21 236 1.0 0.0 0.00 0.00 0.00 49 1020.5
20190326102750 21 215 1.0 0.0 0.00 0.00 0.00 49 1020.5
20190326101752 21 244 2.0 0.0 0.00 0.00 0.00 51 1020.4
20190326100757 21 250 2.0 0.0 0.00 0.00 0.00 50 1020.3
20190326095756 21 242 0.0 0.0 0.00 0.00 0.00 49 1019.9
20190326094801 21 242 2.0 0.0 0.00 0.00 0.00 49 1020.0
20190326094534 21 242 2.0 0.0 0.00 0.00 0.00 49 1021.7
20190326092746 22 240 1.0 0.0 0.00 0.00 0.00 50 1019.7
20190326091755 22 242 1.0 0.0 0.00 0.00 0.00 47 1019.8
20190326091509 22 242 1.0 0.0 0.00 0.00 0.00 46 1021.5
20190326090758 22 242 1.0 0.0 0.00 0.00 0.00 46 1019.6
20190326085742 22 241 0.0 0.0 0.00 0.00 0.00 47 1019.7
20190326084747 23 244 0.0 0.0 0.00 0.00 0.00 42 1019.7
20190326083750 23 244 0.0 0.0 0.00 0.00 0.00 41 1019.5
20190326082750 24 244 0.0 0.0 0.00 0.00 0.00 42 1019.4
20190326081756 24 244 0.0 0.0 0.00 0.00 0.00 39 1019.4
20190326080755 24 244 0.0 0.0 0.00 0.00 0.00 36 1019.4
20190326075755 25 244 1.0 0.0 0.00 0.00 0.00 35 1019.6
20190326074757 25 244 1.0 0.0 0.00 0.00 0.00 33 1019.5
20190326073740 25 244 1.0 0.0 0.00 0.00 0.00 35 1019.6
20190326072742 25 244 1.0 0.0 0.00 0.00 0.00 35 1019.4
20190326071747 25 244 2.0 0.0 0.00 0.00 0.00 36 1019.5
20190326070750 25 360 1.0 0.0 0.00 0.00 0.00 38 1019.6
20190326065755 25 244 1.0 0.0 0.00 0.00 0.00 37 1019.6
20190326064800 25 244 0.0 0.0 0.00 0.00 0.00 36 1019.6
20190326064509 24 244 0.0 0.0 0.00 0.00 0.00 36 1021.1
20190326063743 25 244 0.0 0.0 0.00 0.00 0.00 37 1019.1
20190326062741 25 244 0.0 0.0 0.00 0.00 0.00 38 1019.0
20190326061747 25 244 0.0 0.0 0.00 0.00 0.00 36 1019.0
20190326060750 25 244 1.0 0.0 0.00 0.00 0.00 37 1019.0
20190326055748 25 244 1.0 0.0 0.00 0.00 0.00 38 1019.0
20190326054754 25 244 1.0 0.0 0.00 0.00 0.00 40 1019.1
20190326054511 25 244 1.0 0.0 0.00 0.00 0.00 40 1020.7
20190326053757 25 244 1.0 0.0 0.00 0.00 0.00 38 1019.1
20190326052739 25 244 2.0 0.0 0.00 0.00 0.00 39 1019.0
20190326051746 25 244 1.0 0.0 0.00 0.00 0.00 41 1018.8
20190326050754 26 244 1.0 0.0 0.00 0.00 0.00 38 1018.6
20190326045754 26 244 0.0 0.0 0.00 0.00 0.00 38 1018.5
20190326044738 26 244 0.0 0.0 0.00 0.00 0.00 34 1018.3
20190326044508 25 244 0.0 0.0 0.00 0.00 0.00 36 1019.8
20190326043742 26 244 0.0 0.0 0.00 0.00 0.00 37 1018.2
20190326042743 27 244 1.0 0.0 0.00 0.00 0.00 38 1018.2
20190326041748 27 244 0.0 0.0 0.00 0.00 0.00 37 1018.1
20190326040819 27 285 1.0 0.0 0.00 0.00 0.00 37 1018.1
20190326035754 27 285 1.0 0.0 0.00 0.00 0.00 34 1018.2
20190326034739 27 294 1.0 0.0 0.00 0.00 0.00 35 1018.1
20190326033742 27 294 0.0 0.0 0.00 0.00 0.00 38 1018.0
20190326032746 28 294 1.0 0.0 0.00 0.00 0.00 35 1017.7
20190326031752 28 294 0.0 0.0 0.00 0.00 0.00 32 1017.8
20190326030800 29 294 0.0 0.0 0.00 0.00 0.00 34 1017.6
20190326025739 29 294 0.0 0.0 0.00 0.00 0.00 33 1017.5
20190326024744 30 294 0.0 0.0 0.00 0.00 0.00 33 1017.4
20190326023743 30 293 1.0 0.0 0.00 0.00 0.00 31 1017.3
20190326022743 30 257 0.0 0.0 0.00 0.00 0.00 28 1017.1
20190326021748 30 257 0.0 0.0 0.00 0.00 0.00 28 1017.0
20190326020750 30 257 0.0 0.0 0.00 0.00 0.00 27 1016.9
20190326015752 30 257 0.0 0.0 0.00 0.00 0.00 27 1016.8
20190326014741 30 257 0.0 0.0 0.00 0.00 0.00 29 1016.9
20190326013744 31 257 1.0 0.0 0.00 0.00 0.00 29 1016.9
20190326012745 31 257 1.0 0.0 0.00 0.00 0.00 31 1016.7
20190326011755 31 257 1.0 0.0 0.00 0.00 0.00 30 1016.7
20190326010756 31 257 0.0 0.0 0.00 0.00 0.00 30 1016.5
20190326005756 31 257 0.0 0.0 0.00 0.00 0.00 28 1016.5
20190326004756 31 257 0.0 0.0 0.00 0.00 0.00 29 1016.1
20190326003758 31 257 0.0 0.0 0.00 0.00 0.00 29 1016.0
20190326002757 31 257 0.0 0.0 0.00 0.00 0.00 29 1015.8
20190326001740 31 257 0.0 0.0 0.00 0.00 0.00 30 1015.7
20190326000745 31 257 0.0 0.0 0.00 0.00 0.00 27 1015.8
20190325235749 32 257 0.0 0.0 0.00 0.00 0.00 27 1015.5
20190325234754 32 257 0.0 0.0 0.00 0.00 0.00 28 1015.5
20190325234508 32 257 0.0 0.0 0.00 0.00 0.00 28 1016.9
20190325233758 33 257 0.0 0.0 0.00 0.00 0.00 29 1015.5
20190325232744 33 257 1.0 0.0 0.00 0.00 0.00 27 1015.5
20190325231748 34 257 2.0 0.0 0.00 0.00 0.00 26 1015.4
20190325230751 34 262 1.0 0.0 0.00 0.00 0.00 26 1015.4
20190325225752 34 297 2.0 0.0 0.00 0.00 0.00 25 1015.5
20190325224755 35 259 3.0 0.0 0.00 0.00 0.00 25 1015.4
20190325223754 35 298 3.0 0.0 0.00 0.00 0.00 26 1015.3
20190325222753 36 302 4.0 0.0 0.00 0.00 0.00 24 1015.1
20190325221758 36 292 4.0 0.0 0.00 0.00 0.00 22 1015.0
20190325220740 37 224 3.0 0.0 0.00 0.00 0.00 24 1014.9
20190325215741 38 280 3.0 0.0 0.00 0.00 0.00 26 1015.0
20190325214749 39 215 3.0 0.0 0.00 0.00 0.00 27 1015.0
20190325213753 39 38 3.0 0.0 0.00 0.00 0.00 24 1014.8
20190325212741 39 296 4.0 0.0 0.00 0.00 0.00 22 1014.8
20190325211805 40 252 3.0 0.0 0.00 0.00 0.00 22 1014.7
20190325211509 39 248 3.0 0.0 0.00 0.00 0.00 23 1015.9
20190325210803 40 309 4.0 0.0 0.00 0.00 0.00 20 1014.5
20190325205739 40 284 4.0 0.0 0.00 0.00 0.00 25 1014.7
20190325204745 40 303 3.0 0.0 0.00 0.00 0.00 19 1014.8
20190325203744 39 184 4.0 0.0 0.00 0.00 0.00 20 1014.9
20190325202743 40 247 4.0 0.0 0.00 0.00 0.00 22 1015.0